[Iaude] MPEC W106: 2023 WP2 [a=0.91,e=0.38,i=27.9,H=25.3]
    mpec at marsden.cfa.harvard.edu 
    mpec at marsden.cfa.harvard.edu
       
    Thu Nov 23 15:28:34 EST 2023
    
    
  
M.P.E.C. 2023-W106                            Issued 2023 November 23, 20:26 UT
     The Minor Planet Electronic Circulars contain information on unusual
         minor planets, routine data on comets and natural satellites,
         and occasional editorial announcements.  They are published
    on behalf of Division F of the International Astronomical Union by the
          Minor Planet Center, Smithsonian Astrophysical Observatory,
                          Cambridge, MA 02138, U.S.A.
			  
             Prepared using the Tamkin Foundation Computer Network
                              MPC at CFA.HARVARD.EDU
            URL https://www.minorplanetcenter.net/    ISSN 1523-6714
                                    2023 WP2                                    
Observations:
     K23W02P*1C2023 11 22.30777103 52 24.575+35 14 38.51         20.20GVEW106G96
     K23W02P 1C2023 11 22.31296503 52 16.885+35 15 39.92         20.11GVEW106G96
     K23W02P 1C2023 11 22.31817103 52 09.286+35 16 40.15         22.07GVEW106G96
     K23W02P 1C2023 11 22.32336603 52 01.682+35 17 40.56         20.15GVEW106G96
     K23W02P KC2023 11 22.35380903 51 17.172+35 23 32.28         20.18GVEW106I52
     K23W02P KC2023 11 22.35692003 51 12.604+35 24 08.14         20.23GVEW106I52
     K23W02P KC2023 11 22.35847503 51 10.343+35 24 26.60         20.12GVEW106I52
     K23W02P KC2023 11 23.13823403 33 45.788+37 39 37.15         20.02GVEW106I52
     K23W02P KC2023 11 23.13944903 33 44.201+37 39 49.07         20.54GVEW106I52
     K23W02P KC2023 11 23.14065703 33 42.620+37 40 00.80         20.01GVEW106I52
     K23W02P KC2023 11 23.14186303 33 41.029+37 40 12.43         20.28GVEW106I52
     K23W02P pC2023 11 23.76926103 20 36.36 +39 09 12.1          20.8 GVEW106L01
     K23W02P pC2023 11 23.77099003 20 34.23 +39 09 26.7          21.0 GVEW106L01
     K23W02P pC2023 11 23.77136003 20 33.79 +39 09 29.7          21.2 GVEW106L01
     K23W02P pC2023 11 23.77358203 20 31.13 +39 09 46.5          21.2 GVEW106L01
     K23W02P pC2023 11 23.77748203 20 26.29 +39 10 18.0          20.6 GVEW106L01
Observer details:
G96 Mt. Lemmon Survey.  Observer K. W. Wierzchos.  Measurers E. C. Beshore, D.
    Fay, J. B. Fazekas, D. C. Fuls, A. R. Gibbs, A. D. Grauer, H. Groeller, J.
    K. Hogan, R. A. Kowalski, S. M. Larson, G. J. Leonard, D. Rankin, R. L.
    Seaman, F. C. Shelly, K. W. Wierzchos.  1.5-m reflector + 10K CCD.
I52 Steward Observatory, Mt. Lemmon Station.  Observers R. A. Kowalski, K. W.
    Wierzchos.  Measurers E. C. Beshore, D. Fay, J. B. Fazekas, D. C. Fuls, A.
    R. Gibbs, A. D. Grauer, H. Groeller, J. K. Hogan, R. A. Kowalski, S. M.
    Larson, G. J. Leonard, D. Rankin, R. L. Seaman, F. C. Shelly, K. W.
    Wierzchos.  1.0-m prime focus + CCD.
L01 Visnjan Observatory, Tican.  Observer K. Korlevic.  1.0-m f/2.9 reflector
    + CCD.
Orbital elements:
2023 WP2                                                 Earth MOID = 0.0417 AU
Epoch 2023 Sept. 13.0 TT = JDT 2460200.5                MPC                     
M  16.51347              (2000.0)            P               Q                  
n   1.13599026     Peri.  228.01577     +0.19937319     +0.89640054             
a   0.9096751      Node    57.79470     -0.70220282     +0.41246887             
e   0.3750256      Incl.   27.89527     -0.68349216     -0.16228214             
P   0.87           H   25.37          G   0.15           U   8                  
Residuals in seconds of arc
231122 G96  0.5+  0.1-    231122 I52  0.2-  0.6+    231123 L01  0.1-  0.9+
231122 G96  0.3-  0.5+    231123 I52  0.4-  0.3-    231123 L01  0.1+  0.9+
231122 G96  0.1+  0.1-    231123 I52  0.1-  0.1-    231123 L01  0.8+  0.2-
231122 G96  0.2+  0.2-    231123 I52  0.2+  0.0     231123 L01  0.2+  0.1-
231122 I52  0.2+  0.3-    231123 I52  0.3+  0.0
231122 I52  0.3-  0.0     231123 L01  0.0   0.2+
Ephemeris:
2023 WP2                 a,e,i = 0.91, 0.38, 28                  q = 0.5685
Date    TT    R. A. (2000) Decl.     Delta      r    Elong.  Phase     V
2023 10 24    10 27 48.8 -42 46 43   0.2366  0.8768    54.0   113.4    26.3
...
2023 11 08    09 00 57.8 -33 41 15   0.1061  0.9760    78.8    95.1    23.8
...
2023 11 16    06 43 34.3 -02 53 41   0.05646 1.0234   126.1    51.3    21.1
...
2023 11 22    03 59 47.9 +34 11 37   0.07048 1.0562   165.5    13.5    20.5
2023 11 23    03 36 40.9 +37 17 47   0.07710 1.0614   162.6    16.2    20.8
2023 11 24    03 15 57.9 +39 38 42   0.08437 1.0666   158.9    19.5    21.1
...
2023 11 30    01 55 01.7 +45 28 57   0.1356  1.0961   141.7    33.9    22.6
...
2023 12 08    01 11 41.6 +46 42 06   0.2120  1.1314   129.3    42.4    23.9
...
2023 12 23    00 54 21.3 +46 52 27   0.3614  1.1853   115.6    48.5    25.3
A. U. Tomatic                (C) Copyright 2023 MPC           M.P.E.C. 2023-W106
    
    
More information about the Iaude
mailing list